Location: Gilevgi
(36.8751°N, 30.0581°E)
Time: 20:48:35
(UTC+00:00)

EXPRESS MD2 - Pass Details

Date: 11 December 2025
Orbit: 258 x 2835 km, 49.8° (Epoch: 11 January)

Event Time Altitude Azimuth Distance (km) Brightness Sun altitude
Rises 15:49:24 0° 244° (WSW) 1,871 8.0 -12.9°
Reaches altitude 10° 15:51:03 10° 250° (WSW) 1,139 6.5 -13.2°
Maximum altitude 15:53:21 49° 328° (NNW) 458 3.0 -13.6°
Enters shadow 15:55:03 22° 36° (NE) 940 4.0 -13.9°
